STARLINK-11590, 63112

Orbit data source: Space-Track

STARLINK-11590, 63112 is a payload satellite owned by SpaceX/Seattle (US) in LEO that was launched on Thu, 27 Feb 2025 UTC via an FALCON 9 launch vehicle from the Air Force Eastern Test Range (AFETR). Payload-class satellites include a variety of spacecraft equipped with specific instruments for various scientific and technological missions. These include communications satellites like Starlink; space stations such as the ISS; scientific satellites like the Hubble; Earth observation satellites from companies like Planet Labs, Umbra, and HawkEye 360; GPS; miniature CubeSats for education and research; and military/defense satellites.

Loading next visibility...
Identifier
63112, 2025-039J
Orbit
LEO
Country
Flag of USUS
Related business
Manufacturer
SpaceX/Seattle
Mission
Operational Commercial Communications
Bus & Motor
STARLINK V2MD, Unknown motor
Mass
960 kg wet, ~910 kg dry
Launch date (UTC)
2025-02-27 (1 year ago)
Launch vehicle
FALCON 9
Launch site
Air Force Eastern Test Range (AFETR)
Object type
Payload
Rocket body
Debris
Shape & HBR
Box + 2 Pan, 18.1 m
Radar Cross Section
36.964 m², Large (>1 m²)

Expand to show TLE details & history
Last TLE update: 1 day ago

TLE from 1 day ago
0 STARLINK-11590
1 63112U 25039J   26124.72612704  .00193656  00000-0  14774-2 0  9991
2 63112  42.9983 259.5116 0001610 297.0817  62.9887 15.70846214 68429
Epoch: 2026-05-04T17:25Z
TLE epoch observation values (Epoch: 2026-05-04T17:25:37.376Z)
Latitude
0.00004°
Longitude
135.49472°
Altitude
355.756 km
Speed
7.698 km/s
True Right ascension
17h 18m 02s
True Declination
0° 00' 00"
Sunlit
Object was in full shadow at epoch
Visualization orbit readout
Latitude
Unknown
Longitude
Unknown
Altitude
Unknown
Speed
Unknown
Apparent Right ascension
Unknown
Apparent Declination
Unknown
Sunlit
N/A
Visualization observer readout
Local Sidereal Time
03:53:19
Azimuth
Unknown
Elevation
Unknown
Doppler factor
Unknown
Orbital elements
Apogee altitude
359.544 km
Perigee altitude
357.375 km
Semi-major axis
6,736.596 km
Eccentricity
0.00016
Inclination
42.9983°
RAAN
259.5116°
Arg. of periapsis
297.0817°
True anomaly
63.00514°
Mean anomaly
62.9887°
Eccentric anomaly
62.99692°
Mean motion
3.92539 °/min
Orbital period
91.71 mins
BSTAR
0.0014774
Loading maneuver chart data...
Computing Atmospheric mass density...
Loading historical data...
Loading historical data...
Loading historical data...
Loading historical data...
Loading historical data...
Loading historical data...
Loading historical data...

Documentation

Showing up to 5 results
|